DW4589 Weather Reports


time (UTC)temp
C
wind
direction
speed
KPH
gust
KPH
rain 1hr
cm
rain 24hr
cm
rain mn
cm
humidity
%
barometer
mb
20260903011513 26 269 0.0 0.0 0.00 0.00 0.00 76 1016.5
20260903011006 26 269 0.0 0.0 0.00 0.00 0.00 76 1016.5
20260903010505 26 269 0.0 0.0 0.00 0.00 0.00 76 1016.4
20260903010009 26 269 0.0 0.0 0.00 0.00 0.00 76 1016.4
20260903005504 27 269 0.0 0.0 0.00 0.00 0.00 74 1016.4
20260903005004 27 269 0.0 3.2 0.00 0.00 0.00 74 1016.3
20260903004503 27 269 0.0 3.2 0.00 0.00 0.00 72 1016.3
20260903004003 27 269 0.0 3.2 0.00 0.00 0.00 71 1016.2
20260903003503 28 269 0.0 3.2 0.00 0.00 0.00 69 1016.2
20260903003009 28 269 0.0 3.2 0.00 0.00 0.00 69 1016.2
20260903002505 28 269 0.0 3.2 0.00 0.00 0.00 67 1016.2
20260903002006 29 269 0.0 3.2 0.00 0.00 0.00 67 1016.2
20260903001508 30 269 0.0 3.2 0.00 0.00 0.00 65 1016.2
20260903001004 30 269 0.0 1.6 0.00 0.00 0.00 65 1016.2
20260903000505 30 269 0.0 3.2 0.00 0.00 0.00 64 1016.1
20260903000011 30 260 0.0 3.2 0.00 0.00 0.00 62 1016.1
20260902235502 31 240 0.0 3.2 0.00 0.00 0.00 63 1016.1
20260902235004 31 240 0.0 3.2 0.00 0.00 0.00 63 1016.1
20260902234511 31 240 0.0 3.2 0.00 0.00 0.00 62 1016.1
20260902234004 32 240 0.0 3.2 0.00 0.00 0.00 61 1016.1
20260902233503 32 248 0.0 3.2 0.00 0.00 0.00 62 1016.1
20260902233011 32 266 0.0 3.2 0.00 0.00 0.00 59 1016.1
20260902232503 32 238 1.6 11.3 0.00 0.00 0.00 58 1016.1
20260902232004 32 239 1.6 11.3 0.00 0.00 0.00 58 1016.1
20260902231509 32 239 1.6 6.4 0.00 0.00 0.00 58 1016.1
20260902231006 32 240 1.6 12.9 0.00 0.00 0.00 58 1016.2
20260902230506 32 246 3.2 12.9 0.00 0.00 0.00 57 1016.1
20260902230015 33 360 3.2 12.9 0.00 0.00 0.00 57 1016.2
20260902225505 33 246 1.6 8.0 0.00 0.00 0.00 57 1016.2
20260902225008 33 360 3.2 12.9 0.00 0.00 0.00 55 1016.2
20260902224516 33 213 3.2 12.9 0.00 0.00 0.00 56 1016.2
20260902224004 33 306 3.2 9.7 0.00 0.00 0.00 57 1016.2
20260902223506 33 215 4.8 9.7 0.00 0.00 0.00 56 1016.2
20260902223003 33 360 3.2 9.7 0.00 0.00 0.00 57 1016.2
20260902222504 33 360 3.2 9.7 0.00 0.00 0.00 57 1016.2
20260902222003 33 209 3.2 11.3 0.00 0.00 0.00 58 1016.3
20260902221516 33 360 3.2 11.3 0.00 0.00 0.00 56 1016.2
20260902221004 33 251 1.6 6.4 0.00 0.00 0.00 57 1016.3
20260902220504 33 146 1.6 4.8 0.00 0.00 0.00 56 1016.3
20260902220016 33 248 3.2 6.4 0.00 0.00 0.00 57 1016.4
20260902215507 33 231 3.2 14.5 0.00 0.00 0.00 56 1016.4
20260902215007 33 261 6.4 14.5 0.00 0.00 0.00 55 1016.4
20260902214517 34 269 4.8 14.5 0.00 0.00 0.00 54 1016.4
20260902214007 34 213 4.8 14.5 0.00 0.00 0.00 53 1016.4
20260902213506 34 269 4.8 19.3 0.00 0.00 0.00 54 1016.4
20260902213016 33 360 4.8 19.3 0.00 0.00 0.00 55 1016.4
20260902212511 34 360 9.7 19.3 0.00 0.00 0.00 1016.5
20260902212013 34 360 3.2 12.9 0.00 0.00 0.00 55 1016.5
20260902211512 34 292 4.8 16.1 0.00 0.00 0.00 55 1016.5
20260902211005 34 296 8.0 16.1 0.00 0.00 0.00 52 1016.6
20260902210509 34 288 4.8 11.3 0.00 0.00 0.00 53 1016.5
20260902210016 34 360 3.2 11.3 0.00 0.00 0.00 53 1016.5
20260902205505 33 281 3.2 8.0 0.00 0.00 0.00 54 1016.6
20260902205009 33 309 3.2 8.0 0.00 0.00 0.00 55 1016.7
20260902204536 33 306 4.8 6.4 0.00 0.00 0.00 1016.7
20260902204011 33 360 1.6 8.0 0.00 0.00 0.00 1016.6
20260902203512 33 273 1.6 14.5 0.00 0.00 0.00 52 1016.7
20260902203020 33 360 6.4 14.5 0.00 0.00 0.00 52 1016.7
20260902202510 34 259 6.4 14.5 0.00 0.00 0.00 51 1016.7
20260902202012 34 259 6.4 14.5 0.00 0.00 0.00 52 1016.6
20260902201524 34 282 6.4 16.1 0.00 0.00 0.00 49 1016.8
20260902201009 34 360 6.4 16.1 0.00 0.00 0.00 48 1016.9
20260902200503 35 360 9.7 14.5 0.00 0.00 0.00 48 1016.8
20260902200012 34 207 3.2 9.7 0.00 0.00 0.00 50 1016.9
20260902195507 34 360 3.2 11.3 0.00 0.00 0.00 50 1017.0
20260902195008 34 360 6.4 11.3 0.00 0.00 0.00 48 1017.1
20260902194515 34 231 4.8 12.9 0.00 0.00 0.00 51 1017.1
20260902194008 34 298 4.8 16.1 0.00 0.00 0.00 52 1017.2
20260902193510 34 184 8.0 16.1 0.00 0.00 0.00 1017.3
20260902193024 33 360 6.4 19.3 0.00 0.00 0.00 50 1017.3
20260902192512 33 360 8.0 19.3 0.00 0.00 0.00 50 1017.4
20260902192010 33 290 6.4 16.1 0.00 0.00 0.00 51 1017.5
20260902191524 33 297 8.0 16.1 0.00 0.00 0.00 51 1017.5
20260902191011 33 233 4.8 14.5 0.00 0.00 0.00 53 1017.5
20260902190511 33 248 4.8 12.9 0.00 0.00 0.00 55 1017.6
20260902190023 33 360 3.2 12.9 0.00 0.00 0.00 56 1017.6
20260902185507 33 360 4.8 12.9 0.00 0.00 0.00 54 1017.7
20260902185008 33 304 4.8 12.9 0.00 0.00 0.00 56 1017.6
20260902184521 33 284 6.4 12.9 0.00 0.00 0.00 55 1017.6
20260902184008 33 203 8.0 12.9 0.00 0.00 0.00 56 1017.7
20260902183508 33 360 4.8 14.5 0.00 0.00 0.00 55 1017.7
20260902183046 33 360 8.0 16.1 0.00 0.00 0.00 54 1017.8
20260902182512 33 305 6.4 16.1 0.00 0.00 0.00 52 1017.8
20260902182012 33 286 4.8 16.1 0.00 0.00 0.00 51 1017.9
20260902181528 33 250 4.8 19.3 0.00 0.00 0.00 53 1017.9
20260902181013 33 360 9.7 19.3 0.00 0.00 0.00 53 1018.0
20260902180514 33 360 4.8 11.3 0.00 0.00 0.00 54 1018.0
20260902180028 32 323 4.8 16.1 0.00 0.00 0.00 51 1018.1
20260902175514 33 273 4.8 16.1 0.00 0.00 0.00 56 1018.1
20260902175011 33 259 4.8 12.9 0.00 0.00 0.00 53 1018.1
20260902174528 33 271 4.8 12.9 0.00 0.00 0.00 53 1018.2
20260902174007 32 360 4.8 8.0 0.00 0.00 0.00 56 1018.2
20260902173508 32 242 3.2 12.9 0.00 0.00 0.00 58 1018.3
20260902173026 32 236 4.8 12.9 0.00 0.00 0.00 54 1018.2
20260902172511 32 225 6.4 11.3 0.00 0.00 0.00 55 1018.3
20260902172012 32 249 3.2 11.3 0.00 0.00 0.00 56 1018.3
20260902171528 32 360 3.2 12.9 0.00 0.00 0.00 56 1018.4
20260902171002 32 265 4.8 12.9 0.00 0.00 0.00 55 1018.3
20260902170502 32 290 4.8 12.9 0.00 0.00 0.00 57 1018.4
20260902170007 32 268 4.8 14.5 0.00 0.00 0.00 54 1018.4
20260902165502 32 360 4.8 14.5 0.00 0.00 0.00 53 1018.5
20260902165006 32 291 8.0 14.5 0.00 0.00 0.00 53 1018.5
20260902164512 32 298 8.0 14.5 0.00 0.00 0.00 57 1018.5
20260902164004 32 280 6.4 14.5 0.00 0.00 0.00 57 1018.6
20260902163508 32 252 6.4 14.5 0.00 0.00 0.00 57 1018.7
20260902163016 32 241 4.8 12.9 0.00 0.00 0.00 58 1018.6
20260902162507 32 279 4.8 16.1 0.00 0.00 0.00 57 1018.6
20260902162009 32 284 4.8 16.1 0.00 0.00 0.00 59 1018.6
20260902161503 32 229 6.4 11.3 0.00 0.00 0.00 58 1018.6
20260902161004 31 220 4.8 9.7 0.00 0.00 0.00 61 1018.6
20260902160504 31 299 6.4 9.7 0.00 0.00 0.00 61 1018.7
20260902160007 31 245 3.2 9.7 0.00 0.00 0.00 64 1018.7
20260902155505 31 228 1.6 9.7 0.00 0.00 0.00 60 1018.8
20260902155003 31 270 4.8 11.3 0.00 0.00 0.00 61 1018.8
20260902154511 31 246 3.2 11.3 0.00 0.00 0.00 64 1018.7
20260902154006 31 295 4.8 11.3 0.00 0.00 0.00 65 1018.9
20260902153503 31 302 4.8 12.9 0.00 0.00 0.00 63 1018.9
20260902153016 31 265 3.2 12.9 0.00 0.00 0.00 64 1018.9
20260902152507 31 256 3.2 9.7 0.00 0.00 0.00 62 1018.9
20260902152007 31 229 4.8 9.7 0.00 0.00 0.00 63 1018.9
20260902151523 30 265 1.6 6.4 0.00 0.00 0.00 67 1019.0
20260902151011 30 273 3.2 9.7 0.00 0.00 0.00 67 1019.0
20260902150504 30 295 4.8 9.7 0.00 0.00 0.00 66 1019.1
20260902150006 30 222 3.2 6.4 0.00 0.00 0.00 66 1019.1
20260902145504 30 294 3.2 8.0 0.00 0.00 0.00 67 1019.1
20260902145004 30 292 4.8 8.0 0.00 0.00 0.00 67 1019.0
20260902144507 30 300 3.2 11.3 0.00 0.00 0.00 67 1019.1
20260902144005 29 298 4.8 11.3 0.00 0.00 0.00 66 1019.1
20260902143504 29 308 6.4 11.3 0.00 0.00 0.00 67 1019.0
20260902143018 29 271 3.2 8.0 0.00 0.00 0.00 70 1019.1
20260902142506 29 314 3.2 6.4 0.00 0.00 0.00 68 1019.1
20260902142009 28 267 1.6 8.0 0.00 0.00 0.00 72 1019.0
20260902141519 28 288 3.2 8.0 0.00 0.00 0.00 71 1019.1
20260902141012 28 250 1.6 6.4 0.00 0.00 0.00 70 1019.1
20260902140510 28 240 1.6 4.8 0.00 0.00 0.00 73 1018.9
20260902140026 28 263 0.0 4.8 0.00 0.00 0.00 72 1018.9
20260902135517 28 252 1.6 4.8 0.00 0.00 0.00 73 1019.0
20260902135005 28 304 1.6 3.2 0.00 0.00 0.00 73 1019.1
20260902134508 27 226 1.6 3.2 0.00 0.00 0.00 73 1019.1
20260902134002 27 235 0.0 3.2 0.00 0.00 0.00 75 1019.0
20260902133506 27 235 0.0 3.2 0.00 0.00 0.00 74 1018.9
20260902133013 27 209 1.6 3.2 0.00 0.00 0.00 75 1019.0
20260902132509 26 240 0.0 3.2 0.00 0.00 0.00 76 1018.9
20260902132007 26 243 0.0 3.2 0.00 0.00 0.00 77 1018.9
20260902131518 26 239 0.0 3.2 0.00 0.00 0.00 77 1018.9
20260902131009 26 210 0.0 0.0 0.00 0.00 0.00 77 1018.9
20260902130510 26 242 0.0 0.0 0.00 0.00 0.00 77 1018.9
20260902130024 26 242 0.0 0.0 0.00 0.00 0.00 77 1019.0
20260902125514 26 242 0.0 3.2 0.00 0.00 0.00 78 1018.9
20260902125014 25 242 0.0 0.0 0.00 0.00 0.00 79 1018.9
20260902124529 25 194 0.0 0.0 0.00 0.00 0.00 81 1018.9
20260902124004 25 163 0.0 0.0 0.00 0.00 0.00 83 1018.8
20260902123506 24 163 0.0 0.0 0.00 0.00 0.00 85 1018.8
20260902123011 23 163 0.0 0.0 0.00 0.00 0.00 86 1018.7
20260902122506 23 163 0.0 0.0 0.00 0.00 0.00 88 1018.7
20260902122004 23 163 0.0 3.2 0.00 0.00 0.00 89 1018.7
20260902121514 22 163 0.0 3.2 0.00 0.00 0.00 90 1018.6
20260902121008 22 192 0.0 3.2 0.00 0.00 0.00 91 1018.7
20260902120508 22 113 0.0 0.0 0.00 0.00 0.00 92 1018.7
20260902120025 21 113 0.0 1.6 0.00 0.00 0.00 92 1018.6
20260902115512 21 113 0.0 3.2 0.00 0.00 0.00 92 1018.5
20260902115015 21 113 0.0 3.2 0.00 0.00 0.00 92 1018.5
20260902114530 21 113 0.0 3.2 0.00 0.00 0.00 92 1018.4
20260902114016 21 113 0.0 3.2 0.00 0.00 0.00 92 1018.4
20260902113513 21 113 0.0 3.2 0.00 0.00 0.00 92 1018.3
20260902113008 21 113 0.0 3.2 0.00 0.00 0.00 92 1018.3
20260902112506 21 113 0.0 3.2 0.00 0.00 0.00 92 1018.2
20260902112007 20 113 0.0 1.6 0.00 0.00 0.00 92 1018.2
20260902111513 20 113 0.0 1.6 0.00 0.00 0.00 91 1018.1
20260902111008 20 113 0.0 3.2 0.00 0.00 0.00 91 1018.1
20260902110511 20 111 0.0 3.2 0.00 0.00 0.00 91 1018.1
20260902110034 20 69 0.0 3.2 0.00 0.00 0.00 91 1018.1
20260902105513 20 69 0.0 3.2 0.00 0.00 0.00 91 1018.2
20260902105010 20 225 0.0 3.2 0.00 0.00 0.00 91 1018.1
20260902104548 20 225 0.0 1.6 0.00 0.00 0.00 91 1018.1
20260902104017 20 103 0.0 0.0 0.00 0.00 0.00 91 1018.2
20260902103516 20 103 0.0 0.0 0.00 0.00 0.00 91 1018.2
20260902103046 20 103 0.0 0.0 0.00 0.00 0.00 91 1018.2
20260902102518 20 103 0.0 0.0 0.00 0.00 0.00 91 1018.2
20260902102015 20 103 0.0 0.0 0.00 0.00 0.00 91 1018.1
20260902101513 20 103 0.0 0.0 0.00 0.00 0.00 91 1018.2
20260902101006 20 103 0.0 0.0 0.00 0.00 0.00 91 1018.2
20260902100507 20 103 0.0 0.0 0.00 0.00 0.00 91 1018.1
20260902100020 20 103 0.0 0.0 0.00 0.00 0.00 91 1018.1
20260902095510 20 103 0.0 0.0 0.00 0.00 0.00 91 1018.2
20260902095010 21 103 0.0 0.0 0.00 0.00 0.00 91 1018.1
20260902094528 21 103 0.0 0.0 0.00 0.00 0.00 91 1018.1
20260902094014 20 103 0.0 3.2 0.00 0.00 0.00 91 1018.2
20260902093515 20 103 0.0 3.2 0.00 0.00 0.00 90 1018.0
20260902093031 21 103 0.0 3.2 0.00 0.00 0.00 90 1018.0
20260902092517 21 103 0.0 3.2 0.00 0.00 0.00 90 1018.1
20260902092017 21 103 0.0 0.0 0.00 0.00 0.00 91 1018.1
20260902091529 21 103 0.0 0.0 0.00 0.00 0.00 90 1018.1
20260902091015 21 103 0.0 0.0 0.00 0.00 0.00 90 1018.0
20260902090509 21 103 0.0 0.0 0.00 0.00 0.00 90 1017.9
20260902090027 21 103 0.0 0.0 0.00 0.00 0.00 90 1017.9
20260902085507 21 103 0.0 0.0 0.00 0.00 0.00 90 1017.8
20260902085010 21 103 0.0 0.0 0.00 0.00 0.00 90 1017.8
20260902084535 21 103 0.0 0.0 0.00 0.00 0.00 90 1017.7
20260902084014 21 103 0.0 0.0 0.00 0.00 0.00 90 1017.6
20260902083518 21 103 0.0 0.0 0.00 0.00 0.00 90 1017.5
20260902083028 21 103 0.0 3.2 0.00 0.00 0.00 90 1017.5
20260902082516 21 103 0.0 3.2 0.00 0.00 0.00 90 1017.4
20260902082018 21 103 0.0 3.2 0.00 0.00 0.00 90 1017.4
20260902081529 21 103 0.0 3.2 0.00 0.00 0.00 90 1017.4
20260902081007 21 103 0.0 3.2 0.00 0.00 0.00 90 1017.4
20260902080503 21 103 0.0 3.2 0.00 0.00 0.00 89 1017.3
20260902080022 21 103 0.0 3.2 0.00 0.00 0.00 89 1017.3
20260902075509 21 103 1.6 3.2 0.00 0.00 0.00 89 1017.3
20260902075013 21 103 0.0 3.2 0.00 0.00 0.00 89 1017.4
20260902074524 21 103 0.0 3.2 0.00 0.00 0.00 89 1017.3
20260902074003 21 103 0.0 3.2 0.00 0.00 0.00 89 1017.3
20260902073502 21 103 0.0 3.2 0.00 0.00 0.00 89 1017.3
20260902073004 21 103 0.0 3.2 0.00 0.00 0.00 89 1017.3
20260902072503 21 103 0.0 3.2 0.00 0.00 0.00 89 1017.3
20260902072003 21 103 0.0 3.2 0.00 0.00 0.00 89 1017.3
20260902071507 21 103 0.0 3.2 0.00 0.00 0.00 89 1017.3
20260902071002 21 103 0.0 3.2 0.00 0.00 0.00 88 1017.4
20260902070507 21 103 0.0 3.2 0.00 0.00 0.00 88 1017.4
20260902070022 21 103 0.0 3.2 0.00 0.00 0.00 88 1017.4
20260902065506 22 103 0.0 3.2 0.00 0.00 0.00 88 1017.3
20260902065008 22 103 0.0 3.2 0.00 0.00 0.00 88 1017.4
20260902064519 22 103 0.0 3.2 0.00 0.00 0.00 88 1017.4
20260902064011 22 103 0.0 3.2 0.00 0.00 0.00 88 1017.3
20260902063510 22 103 0.0 3.2 0.00 0.00 0.00 87 1017.4
20260902063044 22 103 0.0 0.0 0.00 0.00 0.00 87 1017.4
20260902062504 22 103 0.0 3.2 0.00 0.00 0.00 87 1017.5
20260902062003 22 103 0.0 3.2 0.00 0.00 0.00 87 1017.4
20260902061507 22 103 0.0 3.2 0.00 0.00 0.00 87 1017.4
20260902061003 22 103 0.0 3.2 0.00 0.00 0.00 87 1017.3
20260902060505 22 103 0.0 3.2 0.00 0.00 0.00 86 1017.3
20260902060010 22 103 0.0 3.2 0.00 0.00 0.00 87 1017.3
20260902055506 22 103 0.0 3.2 0.00 0.00 0.00 87 1017.4
20260902055006 22 103 0.0 3.2 0.00 0.00 0.00 87 1017.4
20260902054516 22 103 0.0 3.2 0.00 0.00 0.00 86 1017.4
20260902054008 22 103 0.0 0.0 0.00 0.00 0.00 86 1017.5
20260902053510 22 103 0.0 0.0 0.00 0.00 0.00 86 1017.5
20260902053029 22 103 0.0 0.0 0.00 0.00 0.00 86 1017.4
20260902052512 22 103 0.0 0.0 0.00 0.00 0.00 86 1017.4
20260902052011 22 103 0.0 0.0 0.00 0.00 0.00 86 1017.4
20260902051505 22 103 0.0 0.0 0.00 0.00 0.00 86 1017.4
20260902051003 22 103 0.0 0.0 0.00 0.00 0.00 85 1017.4
20260902050504 22 103 0.0 0.0 0.00 0.00 0.00 85 1017.4
20260902050012 23 103 0.0 0.0 0.00 0.00 0.00 85 1017.4
20260902045503 23 103 0.0 0.0 0.00 0.00 0.00 86 1017.4
20260902045007 23 103 0.0 0.0 0.00 0.00 0.00 85 1017.4
20260902044526 23 103 0.0 0.0 0.00 0.00 0.00 85 1017.4
20260902044010 23 103 0.0 0.0 0.00 0.00 0.00 85 1017.3
20260902043509 23 103 0.0 0.0 0.00 0.00 0.00 84 1017.3
20260902043024 23 103 0.0 0.0 0.00 0.00 0.00 84 1017.2
20260902042512 23 103 0.0 0.0 0.00 0.00 0.00 84 1017.4
20260902042016 23 103 0.0 3.2 0.00 0.00 0.00 84 1017.4
20260902041533 23 103 0.0 3.2 0.00 0.00 0.00 84 1017.5
20260902041018 23 103 0.0 3.2 0.00 0.00 0.00 84 1017.5
20260902040503 23 103 0.0 3.2 0.00 0.00 0.00 84 1017.5
20260902040008 23 103 0.0 3.2 0.00 0.00 0.00 83 1017.5
20260902035504 23 103 0.0 3.2 0.00 0.00 0.00 83 1017.5
20260902035004 23 103 0.0 3.2 0.00 0.00 0.00 83 1017.5
20260902034515 23 103 0.0 3.2 0.00 0.00 0.00 83 1017.5
20260902034008 23 103 0.0 3.2 0.00 0.00 0.00 82 1017.6
20260902033510 23 103 0.0 3.2 0.00 0.00 0.00 82 1017.6
20260902033023 24 103 0.0 3.2 0.00 0.00 0.00 82 1017.5
20260902032516 24 103 0.0 0.0 0.00 0.00 0.00 81 1017.5
20260902032016 24 103 0.0 3.2 0.00 0.00 0.00 81 1017.4
20260902031545 24 103 0.0 3.2 0.00 0.00 0.00 81 1017.4
20260902031015 24 103 0.0 3.2 0.00 0.00 0.00 81 1017.4
20260902030517 24 103 0.0 3.2 0.00 0.00 0.00 80 1017.4
20260902030032 25 103 0.0 3.2 0.00 0.00 0.00 80 1017.4
20260902025516 25 103 0.0 3.2 0.00 0.00 0.00 80 1017.4
20260902025004 25 103 0.0 0.0 0.00 0.00 0.00 79 1017.4
20260902024511 25 103 0.0 0.0 0.00 0.00 0.00 79 1017.4
20260902024007 25 103 0.0 3.2 0.00 0.00 0.00 79 1017.4
20260902023509 25 103 0.0 3.2 0.00 0.00 0.00 78 1017.4
20260902023027 25 103 0.0 3.2 0.00 0.00 0.00 78 1017.4
20260902022512 25 103 0.0 3.2 0.00 0.00 0.00 78 1017.4
20260902022009 26 103 0.0 3.2 0.00 0.00 0.00 77 1017.3
20260902021526 26 103 0.0 3.2 0.00 0.00 0.00 77 1017.3
20260902021011 25 103 0.0 3.2 0.00 0.00 0.00 77 1017.3
20260902020512 25 107 0.0 3.2 0.00 0.00 0.00 77 1017.2
20260902020029 25 98 0.0 3.2 0.00 0.00 0.00 78 1017.2
20260902015516 25 109 0.0 3.2 0.00 0.00 0.00 78 1017.2
20260902015015 25 109 0.0 3.2 0.00 0.00 0.00 78 1017.1
20260902014538 25 5 0.0 3.2 0.00 0.00 0.00 79 1017.2
20260902014005 25 5 0.0 3.2 0.00 0.00 0.00 79 1017.2
20260902013505 25 5 0.0 3.2 0.00 0.00 0.00 79 1017.3
20260902013017 25 5 0.0 3.2 0.00 0.00 0.00 79 1017.2
20260902012507 25 5 0.0 3.2 0.00 0.00 0.00 79 1017.1
20260902012010 25 5 0.0 3.2 0.00 0.00 0.00 78 1017.1
20260902011529 25 5 0.0 3.2 0.00 0.00 0.00 78 1017.1